Regional Weather Roundup
Issued by NWS Portland, ME

Current Version | Previous Version | Graphics & Text | Print | Product List | Glossary Off
Versions: 1 2 3 4 5 6 7 8 9 10 11 12 13 14 15 16 17 18 19 20 21 22 23 24 25 26 27 28 29 30 31 32 33 34 35 36 37 38 39 40 41 42 43 44 45 46 47 48 49 50
000 ASUS41 KGYX 271010 RWRGYX WEATHER ROUNDUP FOR MAINE AND NEW HAMPSHIRE NATIONAL WEATHER SERVICE GRAY ME 600 AM EDT THU APR 27 2017 MEZ002-005-006-010-012-015-018-020-021-024-026-027-029-271100- MAINE CITY SKY/WX TMP DP RH WIND PRES REMARKS PORTLAND DRIZZLE 49 49 100 E7 29.90R SANFORD CLOUDY 51 51 100 NE7 29.90R FOG BAR HARBOR FOG 49 48 97 E3 29.96R VSB 3/4 WISCASSET CLOUDY 51 50 96 E3 29.91S FOG ROCKLAND CLOUDY 48 48 100 E7 29.92R FRYEBURG CLOUDY 54 54 100 CALM 29.90R LEWISTONAUBURN CLOUDY 52 52 100 E5 29.90R AUGUSTA FOG 51 49 92 E5 29.91R VSB 1/2 WATERVILLE CLOUDY 52 52 100 CALM 29.90R FOG BANGOR CLOUDY 53 52 96 SE5 29.94R GREENVILLE N/A 51 51 100 E5 29.91R MILLINOCKET FOG 53 53 100 E3 29.95R VSB 3/4 HOULTON CLOUDY 55 55 100 VRB3 29.96R PRESQUE ISLE CLOUDY 55 54 96 SE3 29.97R FOG FRENCHVILLE FOG 51 50 96 E7 29.95F VSB<1/4 CARIBOU FOG 55 54 96 SE6 29.96R VSB 1/2 $$ NHZ002-005-008-009-011-012-014-271100- NEW HAMPSHIRE CITY SKY/WX TMP DP RH WIND PRES REMARKS PORTSMOUTH CLOUDY 50 50 100 N3 29.88R FOG ROCHESTER CLOUDY 52 51 97 N3 29.88R FOG NASHUA CLOUDY 53 53 100 CALM 29.89R FOG MANCHESTER CLOUDY 54 51 90 NW3 29.88R CONCORD FOG 54 53 97 NE3 29.89R VSB 3/4 LACONIA CLOUDY 53 52 96 E5 29.89R PLYMOUTH CLOUDY 53 52 97 CALM 29.87S FOG BERLIN FOG 51 48 89 CALM 29.90R VSB 1 WHITEFIELD PTCLDY 45 42 89 CALM 29.86F JAFFREY FOG 52 52 100 CALM 29.88R VSB 3/4 KEENE CLOUDY 53 53 100 CALM 29.88R LEBANON CLOUDY 54 54 100 CALM 29.87R FOG MT WASHINGTON MOCLDY 45 41 87 S13 N/A $$ VTZ005-007-008-271100- VERMONT CITY SKY/WX TMP DP RH WIND PRES REMARKS ST JOHNSBURY N/A 54 52 93 MISG 29.86R BURLINGTON PTCLDY 52 51 97 S3 29.84R $$ MAZ007-012-024-CTZ003-RIZ002-NYZ038-NYZ072-271100- SOUTHERN NEW ENGLAND AND NY CITY SKY/WX TMP DP RH WIND PRES REMARKS BOSTON FOG 51 51 100 NW8 29.88R VSB 1/2 WORCESTER FOG 51 50 96 NE6 29.87S VSB 1/4 NANTUCKET CLOUDY 53 52 96 NE5 29.86R PROVIDENCE CLOUDY 55 55 100 N6 29.88R FOG HARTFORD CLOUDY 56 55 97 N5 29.88R ALBANY CLOUDY 59 54 83 CALM 29.86R NEW YORK CITY DRZL/FOG 57 56 96 CALM 29.86S VSB 1/2 $$ ANZ081-ANZ082-ANZ150-NHZ014-MEZ023>029-271100- COASTAL MARINE OBSERVATIONS STATION/POSITION TIME TEMP WIND PRES WAVE AIR SEA DIR/SP/G HT/PER (UTC) (F) (DEG/KT/KT) (MB) (FT/S) MOUNT DESERT ROC 1000 45 1014.2R MATINICUS ROCK 0900 47 160/ 10/ 10 1012.1F ISLE OF SHOALS 0900 46 20/ 9/ 9 1011.2F JEFFREYS LEDGE 0906 44 N/A 8/11 CASHES LEDGE BUO 0950 45 43 1012.2R 9/10 GEORGES BANK BUO 0850 53 42 1013.0 13/11 $$ .............KEY.............. WCI - WIND CHILL TC - TEMPERATURE IN CELSIUS VSB - VISIBILITY IN MILES HX - HEAT INDEX FAIR- INDICATES FEW OR NO CLOUDS BELOW 12,000 FT, WITH NO SIGNIFICANT WEATHER AND/OR OBSTRUCTIONS TO VISIBILITY.

USA.gov is the U.S. government's official web portal to all federal, state and local government web resources and services.